TimeCDT,TemperatureF,Dew PointF,Humidity,Sea Level PressureIn,VisibilityMPH,Wind Direction,Wind SpeedMPH,Gust SpeedMPH,PrecipitationIn,Events,Conditions,WindDirDegrees,DateUTC
12:13 AM,33.8,32.0,93,29.89,3.0,North,18.4,25.3,N/A,,Overcast,360,2013-04-18 05:13:00
12:33 AM,33.8,32.0,93,29.88,5.0,North,17.3,24.2,N/A,,Overcast,360,2013-04-18 05:33:00
12:52 AM,32.0,32.0,100,29.86,5.0,North,21.9,28.8,N/A,,Overcast,360,2013-04-18 05:52:00
1:13 AM,32.0,32.0,100,29.83,5.0,North,21.9,28.8,N/A,,Overcast,360,2013-04-18 06:13:00
1:33 AM,32.0,32.0,100,29.83,7.0,North,21.9,25.3,N/A,,Overcast,360,2013-04-18 06:33:00
1:52 AM,32.0,32.0,100,29.84,10.0,North,21.9,-,N/A,,Overcast,360,2013-04-18 06:52:00
2:13 AM,32.0,32.0,100,29.85,10.0,North,18.4,23.0,N/A,,Overcast,360,2013-04-18 07:13:00
2:32 AM,32.0,32.0,100,29.85,10.0,North,16.1,21.9,N/A,,Overcast,360,2013-04-18 07:32:00
2:52 AM,32.0,30.2,93,29.83,10.0,North,17.3,-,N/A,,Overcast,10,2013-04-18 07:52:00
3:13 AM,32.0,32.0,100,29.86,10.0,North,17.3,21.9,N/A,,Overcast,360,2013-04-18 08:13:00
3:32 AM,32.0,32.0,100,29.88,10.0,NNW,15.0,-,N/A,,Overcast,340,2013-04-18 08:32:00
3:52 AM,32.0,32.0,100,29.86,10.0,NNW,16.1,-,N/A,,Overcast,340,2013-04-18 08:52:00
4:32 AM,32.0,30.2,93,29.79,4.0,North,20.7,-,N/A,,Overcast,360,2013-04-18 09:32:00
4:52 AM,32.0,30.2,93,29.81,7.0,North,18.4,-,N/A,,Overcast,350,2013-04-18 09:52:00
5:13 AM,32.0,30.2,93,29.78,4.0,North,19.6,25.3,N/A,Snow,Light Snow,360,2013-04-18 10:13:00
5:32 AM,30.2,30.2,100,29.77,2.5,North,20.7,25.3,N/A,Snow,Light Snow,360,2013-04-18 10:32:00
5:52 AM,30.2,30.2,100,29.75,5.0,North,19.6,26.5,N/A,Snow,Light Snow,360,2013-04-18 10:52:00
6:13 AM,30.2,30.2,100,29.74,7.0,North,21.9,27.6,N/A,Snow,Light Snow,360,2013-04-18 11:13:00
6:32 AM,30.2,30.2,100,29.76,10.0,North,23.0,26.5,N/A,,Overcast,350,2013-04-18 11:32:00
6:52 AM,30.2,30.2,100,29.75,10.0,North,25.3,-,N/A,,Overcast,350,2013-04-18 11:52:00
7:13 AM,30.2,30.2,100,29.72,10.0,North,25.3,33.4,N/A,,Overcast,350,2013-04-18 12:13:00
7:32 AM,30.2,30.2,100,29.72,5.0,North,23.0,33.4,N/A,Snow,Light Snow,360,2013-04-18 12:32:00
7:52 AM,30.2,30.2,100,29.72,1.2,North,24.2,29.9,N/A,Snow,Light Snow,350,2013-04-18 12:52:00
8:13 AM,30.2,30.2,100,29.68,2.0,North,25.3,32.2,N/A,Snow,Light Snow,360,2013-04-18 13:13:00
8:32 AM,30.2,30.2,100,29.69,0.8,North,28.8,32.2,0.01,Snow,Light Snow,360,2013-04-18 13:32:00
8:52 AM,30.2,30.2,100,29.70,0.5,North,25.3,29.9,0.02,Snow,Light Snow,360,2013-04-18 13:52:00
9:13 AM,30.2,30.2,100,29.70,0.2,North,24.2,28.8,0.02,Snow,Snow,350,2013-04-18 14:13:00
9:32 AM,30.2,30.2,100,29.70,0.5,North,24.2,-,0.04,Snow,Snow,350,2013-04-18 14:32:00
9:52 AM,30.2,30.2,100,29.71,0.8,North,20.7,-,0.05,Snow,Light Snow,350,2013-04-18 14:52:00
10:32 AM,30.2,30.2,100,29.71,0.5,NNW,20.7,29.9,0.01,Snow,Light Snow,330,2013-04-18 15:32:00
10:52 AM,30.2,30.2,100,29.71,0.2,NNW,21.9,-,0.02,Snow,Snow,330,2013-04-18 15:52:00
11:12 AM,30.2,30.2,100,29.69,0.2,NNW,21.9,27.6,0.01,Snow,Snow,330,2013-04-18 16:12:00
11:32 AM,32.0,30.2,93,29.68,0.5,NNW,23.0,28.8,0.01,Snow,Snow,330,2013-04-18 16:32:00
11:53 AM,32.0,30.2,93,29.68,0.8,NNW,21.9,29.9,0.01,Snow,Light Snow,340,2013-04-18 16:53:00
12:12 PM,30.2,30.2,100,29.69,0.8,NNW,20.7,25.3,N/A,Snow,Light Snow,340,2013-04-18 17:12:00
12:32 PM,30.2,30.2,100,29.67,0.8,NNW,23.0,-,N/A,Snow,Light Snow,330,2013-04-18 17:32:00
12:53 PM,32.0,30.2,93,29.66,0.2,NNW,23.0,26.5,N/A,Snow,Snow,330,2013-04-18 17:53:00
1:12 PM,32.0,30.2,93,29.65,0.5,NNW,19.6,-,N/A,Snow,Snow,330,2013-04-18 18:12:00
1:32 PM,32.0,30.2,93,29.64,0.5,NNW,26.5,31.1,N/A,Snow,Snow,330,2013-04-18 18:32:00
1:53 PM,32.0,30.2,93,29.62,0.5,NNW,27.6,32.2,N/A,Snow,Light Snow,330,2013-04-18 18:53:00
2:13 PM,32.0,30.2,93,29.62,0.8,NNW,27.6,33.4,N/A,Snow,Light Snow,340,2013-04-18 19:13:00
2:32 PM,32.0,30.2,93,29.63,0.5,NNW,21.9,32.2,N/A,Snow,Light Snow,330,2013-04-18 19:32:00
2:53 PM,32.0,30.2,93,29.61,0.2,NNW,26.5,31.1,N/A,Snow,Snow,330,2013-04-18 19:53:00
3:13 PM,32.0,30.2,93,29.62,0.2,NNW,21.9,-,N/A,Snow,Snow,330,2013-04-18 20:13:00
3:32 PM,32.0,30.2,93,29.62,0.2,NNW,20.7,-,N/A,Snow,Snow,330,2013-04-18 20:32:00
3:53 PM,32.0,30.2,93,29.61,-9999.0,NNW,19.6,24.2,0.01,,Overcast,330,2013-04-18 20:53:00
4:12 PM,32.0,30.2,93,29.62,-9999.0,NNW,16.1,-,N/A,,Overcast,330,2013-04-18 21:12:00
4:32 PM,32.0,30.2,93,29.62,-9999.0,NNW,18.4,21.9,N/A,,Overcast,330,2013-04-18 21:32:00
4:53 PM,32.0,30.2,93,29.62,-9999.0,NW,17.3,24.2,N/A,,Overcast,320,2013-04-18 21:53:00
5:12 PM,32.0,30.2,93,29.62,-9999.0,NNW,18.4,-,N/A,,Overcast,330,2013-04-18 22:12:00
5:32 PM,32.0,30.2,93,29.63,-9999.0,NNW,17.3,-,N/A,,Overcast,330,2013-04-18 22:32:00
5:53 PM,32.0,30.2,93,29.64,-9999.0,NNW,18.4,21.9,N/A,,Overcast,330,2013-04-18 22:53:00
6:12 PM,32.0,30.2,93,29.65,-9999.0,NW,13.8,-,N/A,,Overcast,320,2013-04-18 23:12:00
6:32 PM,32.0,30.2,93,29.65,-9999.0,NW,13.8,-,N/A,,Overcast,320,2013-04-18 23:32:00
6:53 PM,32.0,30.2,93,29.66,-9999.0,NW,15.0,-,N/A,,Overcast,320,2013-04-18 23:53:00
7:12 PM,32.0,30.2,93,29.66,-9999.0,NW,13.8,-,N/A,,Overcast,320,2013-04-19 00:12:00
7:32 PM,30.2,30.2,100,29.66,-9999.0,NW,12.7,-,N/A,,Overcast,320,2013-04-19 00:32:00
7:53 PM,30.2,30.2,100,29.66,-9999.0,NW,16.1,-,N/A,,Overcast,320,2013-04-19 00:53:00
8:12 PM,30.2,30.2,100,29.66,-9999.0,NW,16.1,-,N/A,,Overcast,320,2013-04-19 01:12:00
8:32 PM,30.2,30.2,100,29.67,-9999.0,NW,15.0,-,N/A,,Overcast,320,2013-04-19 01:32:00
8:53 PM,-9999,-9999,N/A,29.68,-9999.0,NW,13.8,-,N/A,,Unknown,320,2013-04-19 01:53:00
9:13 PM,-9999,-9999,N/A,29.68,-9999.0,NW,16.1,-,N/A,,Unknown,320,2013-04-19 02:13:00
9:33 PM,-9999,-9999,N/A,29.68,-9999.0,NW,15.0,-,N/A,,Unknown,320,2013-04-19 02:33:00
9:52 PM,30.2,28.4,93,29.68,-9999.0,NW,16.1,-,N/A,,Overcast,320,2013-04-19 02:52:00
10:33 PM,-9999,-9999,N/A,29.67,-9999.0,NW,13.8,-,N/A,,Unknown,310,2013-04-19 03:33:00
10:52 PM,30.2,28.4,93,29.66,-9999.0,NW,13.8,-,N/A,,Overcast,310,2013-04-19 03:52:00
11:13 PM,30.2,28.4,93,29.66,-9999.0,NW,15.0,-,N/A,,Unknown,310,2013-04-19 04:13:00
11:33 PM,30.2,28.4,93,29.65,-9999.0,NW,15.0,-,N/A,,Unknown,310,2013-04-19 04:33:00
11:53 PM,28.4,28.4,100,29.65,-9999.0,NW,13.8,-,N/A,,Unknown,310,2013-04-19 04:53:00